Back to catalog

ELECTRON KICK STAGE R/B

AliveSSO
NORAD 65300·ROCKET BODY·🇺🇸 United States

Launched Aug 23, 2025 from Rocket Lab Launch Complex 1

Loading…

Next Passes (next 24 hours)

TLE

FreshSource: Space-Track

Epoch: Sep 14, 2026, 10:48 UTC

1 65300U 25185D   26257.45036828  .00000902  00000-0  15329-3 0  9997
2 65300  97.9419 336.0968 0012017 141.9465 218.2593 14.71412114 56828

Track ELECTRON KICK STAGE R/B in real time with AllMySat

Download on the App Store